Location: Bas-Clignon
(44.2000°N, 6.6333°E)
Time: 01:46:09
(UTC+00:00)

Daily predictions for brighter satellites

Satellite Brightness Start Highest point End
(mag) Time Altitude Azimuth Time Altitude Azimuth Time Altitude Azimuth
CENTAUR R/B 4.5 02:43:36 23° ENE 02:43:36 23° ENE 02:46:22 10° NE
Cosmos 2369 Rocket 4.3 03:05:39 21° ESE 03:06:15 21° E 03:10:22 10° NE
Cosmos 1943 Rocket 4.0 03:30:59 24° NNE 03:30:59 24° NNE 03:33:09 10° NNE
USA 238 DEB 4.1 03:34:57 55° NE 03:34:57 55° NE 03:40:11 10° NE
USA 238 4.1 03:35:01 56° NE 03:35:01 56° NE 03:40:17 10° NE
USA 215 4.0 03:37:23 10° E 03:43:22 40° NNE 03:44:01 39° N
BREEZE-M DEB (TANK) 3.4 03:59:21 69° ESE 03:59:21 69° ESE 04:09:07 10° ESE
NOSS 3-3 (A) 4.5 04:06:37 63° W 04:07:12 64° WSW 04:15:37 10° SSE
NOSS 3-3 (C) 4.5 04:06:42 63° W 04:07:18 65° WSW 04:15:43 10° SSE
COSMO-SKYMED 1 3.4 04:18:50 10° SE 04:23:00 48° ENE 04:24:46 30° NNE
Meteor 2-3 Rocket 4.3 04:27:08 41° NNW 04:27:08 41° NNW 04:30:59 10° N
Cosmos 1812 3.6 04:29:58 44° SSE 04:29:58 44° SSE 04:32:40 10° SSE
CENTAUR R/B 3.0 04:30:49 42° NW 04:30:49 42° NW 04:37:30 10° NNE
Cosmos 1634 Rocket 3.8 04:30:39 12° NNW 04:36:34 75° W 04:42:45 10° S
Cosmos 1486 Rocket 3.9 04:36:22 22° SSW 04:39:48 78° WNW 04:45:07 10° NNE
Cosmos 2263 4.1 04:34:52 10° SSW 04:40:34 88° ESE 04:46:21 10° NNE
Meteor 1-26 Rocket 4.4 04:43:21 47° WNW 04:44:01 50° W 04:49:31 10° SSW
Cosmos 2344 4.0 04:44:25 34° NW 04:45:44 37° NW 04:53:06 10° NNE
SKYMED 3 4.5 04:42:44 10° SSE 04:47:05 87° ENE 04:49:09 31° NNW
Tsikada Rocket 4.2 04:46:12 39° WSW 04:47:23 43° WNW 04:53:22 10° N
NOSS 3-2 (A) 4.4 04:48:00 29° NNW 04:48:01 29° NNW 04:53:43 10° NNE
Cosmos 2369 Rocket 2.1 04:47:36 35° WSW 04:49:47 58° WNW 04:55:20 10° NNE
CZ-4B R/B 4.1 04:48:12 10° NNE 04:52:42 83° ESE 04:57:09 10° SSW
Meteor 1-31 Rocket 2.7 04:51:21 10° NNE 04:55:17 86° ESE 04:59:12 10° SSW
BREEZE-M DEB (TANK) 4.3 04:39:45 10° SW 04:55:49 60° SSE 04:59:55 10° ENE
SAR-Lupe-3 4.4 04:52:19 10° NNE 04:55:56 88° W 04:59:31 10° SSW
NOSS 3-2 (C) 3.9 04:55:42 36° WNW 04:56:37 37° NW 05:02:42 10° NNE
SJ 16-02 3.2 04:53:06 10° SSE 04:56:59 32° E 05:00:53 10° NE
H-2A R/B 3.6 04:55:41 10° N 05:00:50 32° SW 05:03:02 10° SSW
ATLAS 3B R/B 4.1 04:54:12 10° S 05:00:05 38° ESE 05:06:13 10° NE
Landsat 5 3.6 04:56:16 10° SSE 05:00:47 88° W 05:04:30 15° NNW
SL-27 R/B 3.8 04:58:53 17° N 05:01:16 39° ENE 05:04:36 10° SE
Cosmos 1656 Rocket 3.5 04:56:09 10° SW 05:01:30 64° WNW 05:06:55 10° NNE
Envisat 2.9 04:56:39 10° N 05:01:43 67° WNW 05:06:44 10° SSW
Cosmos 968 Rocket 4.4 05:06:20 28° NW 05:06:20 28° NW 05:09:54 10° N
Meteor 2-8 Rocket 4.4 05:01:54 10° N 05:08:04 84° W 05:14:11 10° S
Cosmos 2180 Rocket 4.4 05:02:27 10° N 05:08:39 86° W 05:14:46 10° S
Cosmos 2098 Rocket 3.3 05:05:32 10° SSW 05:09:21 45° WNW 05:14:12 10° N
Cosmos 1862 3.4 05:06:58 10° SSW 05:10:47 49° WNW 05:14:39 10° N
SKYMED 2 3.7 05:06:50 10° S 05:11:04 51° W 05:13:22 25° NW
CZ-2C R/B 2.7 05:05:48 10° S 05:11:11 58° W 05:16:30 10° NNW
Cosmos 1943 Rocket 3.5 05:12:33 21° NW 05:12:33 21° NW 05:16:05 10° N
Cosmos 921 Rocket 4.2 05:16:00 24° WSW 05:16:00 24° WSW 05:18:58 10° SSW
SL-8 R/B 3.7 05:15:27 31° WNW 05:17:43 77° SSW 05:22:29 10° ESE
DELTA 2 R/B (1) 4.1 05:15:49 18° WSW 05:19:43 52° S 05:25:05 10° E
USA 215 3.2 05:19:28 10° SE 05:26:01 86° SW 05:31:22 17° NW
H-2A R/B 2.8 05:22:53 10° SSE 05:27:02 53° ENE 05:31:18 10° N
Cosmos 1151 Rocket 3.9 05:28:45 24° WNW 05:30:03 28° W 05:33:46 10° SSW
Cosmos 1354 Rocket 4.1 05:28:50 10° SW 05:33:59 54° WNW 05:39:13 10° NNE
Okean 3 Rocket 4.2 05:30:01 10° SW 05:34:08 34° WNW 05:38:19 10° N
CZ-4B R/B 3.3 05:35:36 10° SE 05:38:32 29° ENE 05:41:26 10° N
CZ-4B R/B 2.5 05:36:13 10° NNE 05:39:48 89° W 05:43:23 10° SSW
NOAA 11 4.1 05:34:34 10° N 05:40:01 70° WNW 05:45:28 10° SSW
Cosmos 1766 Rocket 4.5 05:36:57 10° SW 05:40:32 25° WNW 05:44:10 10° NNW
ADEOS 3.6 05:37:14 10° N 05:42:23 59° WNW 05:47:29 10° SSW
Lacrosse 4 Rocket 4.2 05:46:02 10° NNE 05:47:11 11° NE 05:48:20 10° NE
Meteor 1-27 Rocket 3.7 05:43:00 10° NNW 05:48:38 68° W 05:54:20 10° S
CZ-2C R/B 3.0 05:53:08 10° N 05:57:56 59° WNW 06:02:57 10° SSW
ATLAS 5 CENTAUR R/B 1.2 05:55:28 10° SW 05:59:15 66° NW 06:03:32 10° NNE
COSMO-SKYMED 1 4.1 05:56:38 10° SW 05:59:26 17° W 06:01:59 11° NW
Cosmos 1340 Rocket 2.8 05:57:02 10° SSW 06:00:54 55° WNW 06:04:51 10° N
BREEZE-M DEB (TANK) 4.1 05:50:01 12° WNW 06:01:00 62° SW 06:04:37 10° SE
Cosmos 1500 4.0 05:58:01 10° S 06:01:45 55° E 06:05:29 10° NNE
CZ-4C R/B 4.4 06:00:11 10° SW 06:02:21 17° W 06:04:09 12° NW
Cosmos 1538 Rocket 4.0 05:57:38 10° NNW 06:02:54 90° NNW 06:08:05 10° SSE
Meteor PRIRODA 4.2 06:02:43 10° N 06:06:03 35° WNW 06:09:23 10° SW
Cosmos 1607 4.3 06:00:28 10° NNW 06:06:42 65° NE 06:12:48 10° SE
PSLV R/B 4.4 06:03:32 10° SSE 06:07:32 63° ENE 06:11:36 10° N
COSMOS 2487 2.3 06:07:58 10° NNW 06:11:19 72° WSW 06:14:38 10° SSE
Cosmos 1515 3.7 06:08:10 10° NNW 06:11:55 58° W 06:15:38 10° S
H-2A R/B 2.8 06:07:35 10° NNE 06:12:24 54° E 06:17:14 10° S
Nadezhda 4 Rocket 4.3 06:07:26 10° SSW 06:13:15 43° WNW 06:19:12 10° N
Cosmos 1939 Rocket 3.0 06:12:57 10° N 06:16:45 46° WNW 06:20:27 10° SSW
Meteor 1-25 Rocket 4.2 06:11:41 10° SSW 06:17:18 73° WNW 06:22:53 10° N
Cosmos 2228 Rocket 3.2 06:16:09 10° NNW 06:20:35 59° W 06:25:02 10° S
USA 32 4.3 06:17:29 10° NNW 06:22:34 51° W 06:27:36 10° SSW
Cosmos 1743 Rocket 4.2 06:18:49 10° SW 06:22:50 35° WNW 06:26:51 10° N
EO 1 Delta rocket 4.3 06:16:39 10° N 06:23:07 74° WNW 06:28:14 10° SSW
CENTAUR R/B 4.2 06:18:54 10° WNW 06:23:35 19° NNW 06:28:47 10° NNE
